EUTELSAT KA-SAT 9A

Last updated on Fri Dec 19 2025 00:02:50 GMT+0000 (Coordinated Universal Time)

1 37258U 10069A 25352.34177875 .00000087 00000+0 00000+0 0 9993 2 37258 0.0488 339.2268 0002143 201.4048 38.6272 1.00270255 42195
UTC large
Height (km)
Speed (km/s)
/
Latitude / Longitude
Inclination (degrees)
Orbital Period (minutes)
Azimuth
Elevation
Range (km)
Doppler Factor

Next 0 passes for location: London (51.5072 / 0.1276)

Sorry there are no passes over London.